TimePST,TemperatureF,Dew PointF,Humidity,Sea Level PressureIn,VisibilityMPH,Wind Direction,Wind SpeedMPH,Gust SpeedMPH,PrecipitationIn,Events,Conditions,WindDirDegrees,DateUTC
12:56 AM,-2.9,-7.1,82,30.75,10.0,East,6.9,-,N/A,,Clear,80,2013-01-19 08:56:00
1:56 AM,-4.0,-8.0,83,30.75,10.0,ENE,5.8,-,N/A,,Clear,70,2013-01-19 09:56:00
2:56 AM,-5.1,-9.0,83,30.75,10.0,East,6.9,-,N/A,,Clear,90,2013-01-19 10:56:00
3:56 AM,-4.0,-9.0,79,30.74,10.0,NE,3.5,-,N/A,,Clear,40,2013-01-19 11:56:00
4:56 AM,-5.1,-9.9,80,30.78,10.0,ENE,5.8,-,N/A,,Clear,70,2013-01-19 12:56:00
5:56 AM,-6.0,-9.9,83,30.81,10.0,East,3.5,-,N/A,,Clear,80,2013-01-19 13:56:00
6:56 AM,-7.1,-11.0,83,30.84,10.0,Calm,Calm,-,N/A,,Clear,0,2013-01-19 14:56:00
7:56 AM,-5.1,-9.9,80,30.86,10.0,East,4.6,-,N/A,,Clear,90,2013-01-19 15:56:00
8:56 AM,-0.9,-6.0,79,30.87,10.0,Calm,Calm,-,N/A,,Clear,0,2013-01-19 16:56:00
9:56 AM,3.0,-2.9,76,30.87,10.0,East,3.5,-,N/A,,Clear,100,2013-01-19 17:56:00
10:56 AM,7.0,-0.0,73,30.81,10.0,ESE,3.5,-,N/A,,Clear,110,2013-01-19 18:56:00
11:56 AM,12.0,3.9,70,30.76,10.0,East,4.6,-,N/A,,Clear,90,2013-01-19 19:56:00
12:56 PM,16.0,7.0,68,30.73,10.0,East,3.5,-,N/A,,Clear,80,2013-01-19 20:56:00
1:56 PM,19.0,8.1,62,30.70,10.0,Variable,3.5,-,N/A,,Clear,0,2013-01-19 21:56:00
2:56 PM,19.9,9.0,62,30.69,10.0,ENE,4.6,-,N/A,,Clear,70,2013-01-19 22:56:00
3:56 PM,19.0,9.0,65,30.68,10.0,ENE,5.8,-,N/A,,Clear,70,2013-01-19 23:56:00
4:56 PM,15.1,6.1,68,30.70,10.0,East,4.6,-,N/A,,Clear,100,2013-01-20 00:56:00
5:56 PM,10.9,3.9,73,30.73,10.0,North,-9999.0,-,N/A,,Clear,0,2013-01-20 01:56:00
6:56 PM,9.0,3.0,77,30.75,10.0,ENE,4.6,-,N/A,,Clear,70,2013-01-20 02:56:00
7:56 PM,6.1,1.0,80,30.76,10.0,Calm,Calm,-,N/A,,Clear,0,2013-01-20 03:56:00
8:56 PM,3.0,-0.9,84,30.76,9.0,Calm,Calm,-,N/A,,Clear,0,2013-01-20 04:56:00
9:56 PM,1.0,-2.9,83,30.76,10.0,ENE,5.8,-,N/A,,Clear,60,2013-01-20 05:56:00
10:56 PM,1.0,-4.0,79,30.74,10.0,East,4.6,-,N/A,,Clear,80,2013-01-20 06:56:00
11:56 PM,-2.9,-7.1,82,30.73,10.0,ENE,5.8,-,N/A,,Clear,60,2013-01-20 07:56:00